Starlink 31517

operational
NORAD ID: 59213 Int'l Des: 2024-046 Owner: SPXS Country: US Constellation: starlink
LEOCIRCULAR

About Starlink 31517

Description loading...

Live Position

Loading 3D Globe...

Upcoming Passes

Altitude History

Altitude vs Time

uPlot chart will show altitude changes over time

Two-Line Element Set

1 59213U 24046N 25350.23610274 .00002145 00000-0 84524-4 0 9995
2 59213 53.1574 182.9135 0001003 86.0990 274.0126 15.30195543100269
Epoch: Dec 16, 2025 • Age: 22 hours

Current Status

Altitude 476.7 km
Velocity 7.63 km/s
Sub-Earth Point -3.63°S, 36.05°E
Launch Date Mar 11, 2024
Age 1.7 years
Type internet

Technical Details

Classification Payload
Mass 730.00 kg
Dry Mass 700.00 kg
Total Mass 730.00 kg
Length 0.30 m
Diameter 4.10 m
Span 29.00 m
Shape Box + pan
Manufacturer SPXS
Bus Type Starlink V2M
Phase Status In Orbit
Owner/State SPXS/US

Large Constellations

Loading constellations...